Tracking 30923 objects as of 1-Jul-2025
HD Live streaming from Space Station
objects crossing your sky now

STARLINK-3297

Track STARLINK-3297 now!
10-day predictions
STARLINK-3297 is classified as:


NORAD ID: 50159
Int'l Code: 2021-125D
Perigee: 546.0 km
Apogee: 547.8 km
Inclination: 53.2 °
Period: 95.4 minutes
Semi major axis: 6917 km
RCS: Unknown
Launch date: December 18, 2021
Source: United States (US)
Launch site: AIR FORCE WESTERN TEST RANGE (AFWTR)
Your satellite tracking list
Your tracking list is empty




NASA's NSSDC Master Catalog

Two Line Element Set (TLE):
1 50159U 21125D   25181.85064514  .00000694  00000-0  61680-4 0  9995
2 50159  53.2181 309.6783 0001278  87.0050 273.1088 15.08845159198436
Source of the keplerian elements: AFSPC